Simultaneous Nadir Overpasses (SNOs) Predictions

Prediction of SNOs between GOES-17 and METOP-B Satellite Orbit:

Table of predicted SNOs for the next 14.0 days since TLE Epoch: 5/29/2021
Index Date Time (GOES-17) GOES-17 Lat,Lon METOP-B Lat,Lon Distance(km) Time Diff (sec)
1 05/30/2021 06:41:37 -0.04,-137.19 -0.27,-138.12 106.88 80
2 05/31/2021 06:23:39 -0.04,-137.18 0.86,-133.13 461.79 80
3 06/01/2021 18:39:51 0.04,-137.19 0.14,-137.69 56.96 80
4 06/04/2021 06:40:54 -0.03,-137.17 -0.04,-137.30 14.55 80
5 06/06/2021 18:39:06 0.03,-137.16 -0.03,-136.86 34.58 80
6 06/08/2021 06:58:08 -0.02,-137.14 -1.00,-141.45 492.30 80
7 06/09/2021 06:34:49 -0.02,-137.13 0.14,-136.47 75.39 80
8 06/10/2021 18:53:42 0.02,-137.12 0.87,-141.03 445.52 80
9 06/11/2021 18:35:42 0.01,-137.10 -0.21,-136.03 121.69 80
